Weather History for KLFK - November, 2011

Change the Weather History Date:

Wednesday, November 9, 2011

  Actual Average Record
Temperature  
Mean Temperature 56 °F 60 °F  
Max Temperature 64 °F 72 °F 88 °F (1927)
Min Temperature 48 °F 49 °F 24 °F (1991)
Degree Days  
Heating Degree Days 9 6  
Month to date heating degree days 53 48  
Since 1 July heating degree days 118 114  
Cooling Degree Days 0 2  
Month to date cooling degree days 21 18  
Year to date cooling degree days 3368 2562  
Growing Degree Days 5 (Base 50)    
Moisture  
Dew Point 43 °F    
Average Humidity 68    
Maximum Humidity 93    
Minimum Humidity 42    
Precipitation  
Precipitation 0.00 in 0.18 in 3.51 in (1937)
Month to date precipitation 1.53 1.53  
Year to date precipitation 24.70 41.03  
Snow  
Snow 0.00 in - - ()
Month to date snowfall 0.0  
Since 1 July snowfall 0.0  
Since 1 September snowfall 0.0  
Snow Depth 0.00 in    
Sea Level Pressure  
Sea Level Pressure 30.20 in    
Wind  
Wind Speed 8 mph (NNW)    
Max Wind Speed 16 mph    
Max Gust Speed 24 mph    
Visibility 8 miles    
Events Fog    
T = Trace of Precipitation, MM = Missing Value Source: NWS Daily Summary

Daily Weather History Graph

Daily Weather History Graph

Search for Another Location

Airport or City:

Trip Planner

Search our weather history database for the weather conditions in past years. The results will help you decide how hot, cold, wet, or windy it might be!

Date:

Astronomy

Nov. 09, 2011 Rise Set
Actual Time 6:40 AM CST 5:24 PM CST
Civil Twilight 6:15 AM CST 5:49 PM CST
Nautical Twilight 5:46 AM CST 6:18 PM CST
Astronomical Twilight 5:17 AM CST 6:47 PM CST
Moon 4:37 PM CST (11/9) 5:37 AM CST (11/9)
Length of Visible Light 11h 34m
Length of Day
10h 43m
Waxing Gibbous, 99% of the Moon is Illuminated
Nov 9
Waxing Gibbous
Nov 10
Full
Nov 18
Last Quarter
Nov 25
New
Dec 2
First Quarter

Hourly Weather History & Observations

Time (CST) Temp. Dew Point Humidity Pressure Visibility Wind Dir Wind Speed Gust Speed Precip Events Conditions
12:08 AM 55.4 °F 55.4 °F 100% 30.06 in 1.8 mi Calm Calm - N/A   Clear
12:24 AM 55.4 °F 53.6 °F 94% 30.06 in 0.5 mi Calm Calm - N/A Fog Fog
12:53 AM 53.1 °F 52.0 °F 96% 30.06 in 0.8 mi Calm Calm - N/A   Clear
1:02 AM 53.6 °F 51.8 °F 94% 30.07 in 1.2 mi NW 3.5 mph - N/A   Clear
1:10 AM 53.6 °F 53.6 °F 100% 30.08 in 3.0 mi Calm Calm - 0.01 in   Clear
1:53 AM 55.0 °F 53.1 °F 93% 30.09 in 10.0 mi NNW 5.8 mph - 0.01 in   Clear
2:53 AM 54.0 °F 51.1 °F 90% 30.09 in 10.0 mi NW 4.6 mph - N/A   Clear
3:53 AM 53.1 °F 50.0 °F 89% 30.12 in 10.0 mi NW 8.1 mph - N/A   Clear
4:53 AM 51.1 °F 46.9 °F 86% 30.14 in 10.0 mi NW 8.1 mph - N/A   Clear
5:53 AM 48.9 °F 45.0 °F 86% 30.17 in 10.0 mi NNW 3.5 mph - N/A   Clear
6:53 AM 48.0 °F 43.0 °F 83% 30.20 in 10.0 mi NNW 8.1 mph - N/A   Clear
7:53 AM 48.9 °F 43.0 °F 80% 30.23 in 10.0 mi NNW 6.9 mph - N/A   Clear
8:53 AM 51.1 °F 42.1 °F 71% 30.25 in 10.0 mi NNW 12.7 mph 23.0 mph N/A   Clear
9:53 AM 53.1 °F 41.0 °F 64% 30.26 in 10.0 mi NNW 11.5 mph 21.9 mph N/A   Clear
10:53 AM 55.9 °F 42.1 °F 60% 30.25 in 10.0 mi NNW 9.2 mph - N/A   Clear
11:53 AM 59.0 °F 41.0 °F 51% 30.25 in 10.0 mi NNW 10.4 mph 17.3 mph N/A   Clear
12:53 PM 61.0 °F 41.0 °F 48% 30.21 in 10.0 mi NNW 12.7 mph 19.6 mph N/A   Clear
1:53 PM 62.1 °F 39.9 °F 44% 30.20 in 10.0 mi North 13.8 mph 23.0 mph N/A   Clear
2:53 PM 62.1 °F 39.9 °F 44% 30.20 in 10.0 mi NNW 12.7 mph 20.7 mph N/A   Clear
3:53 PM 62.1 °F 39.0 °F 43% 30.20 in 10.0 mi North 10.4 mph 19.6 mph N/A   Clear
4:53 PM 60.1 °F 37.9 °F 44% 30.22 in 10.0 mi NNW 9.2 mph - N/A   Clear
5:53 PM 55.9 °F 37.0 °F 49% 30.24 in 10.0 mi NNW 4.6 mph - N/A   Clear
6:53 PM 54.0 °F 37.0 °F 53% 30.26 in 10.0 mi NNW 5.8 mph - N/A   Clear
7:53 PM 54.0 °F 37.0 °F 53% 30.27 in 10.0 mi NNW 6.9 mph - N/A   Clear
8:53 PM 53.1 °F 37.0 °F 55% 30.30 in 10.0 mi NW 4.6 mph - N/A   Clear
9:53 PM 53.1 °F 36.0 °F 52% 30.33 in 10.0 mi NNW 3.5 mph - N/A   Clear
10:53 PM 51.1 °F 36.0 °F 56% 30.34 in 10.0 mi NW 4.6 mph - N/A   Clear
11:53 PM 51.1 °F 35.1 °F 54% 30.34 in 10.0 mi North 4.6 mph - N/A   Clear